Location: Bern�tre
(50.1974°N, 2.0915°E)
Time: 05:49:51
(UTC+00:00)

Abrixas rocket - Pass Details

Date: 18 September 2020
Orbit: 329 x 336 km, 48.4° (Epoch: 22 October)

Event Time Altitude Azimuth Distance (km) Brightness Sun altitude
Rises 19:34:18 0° 260° (W) 2,094 6.8 -15.8°
Reaches altitude 10° 19:36:18 10° 256° (WSW) 1,257 5.5 -16.1°
Maximum altitude 19:39:04 58° 176° (S) 389 1.8 -16.5°
Enters shadow 19:39:11 58° 161° (SSE) 392 1.8 -16.6°
